www.pogodaiklimat.ru

Погода и климат >> Архив погоды >> Япония >> Миякодзима


ПОГОДА в Миякодзиме

  • Прогноз погоды в Миякодзиме
  • Монитор погоды в Миякодзиме

АРХИВ ПОГОДЫ в Миякодзиме

Время (UTC), дата Ветер
(напр.,м/с)
 
Видим.   Явления Облачность Т
(С)
Тd
(С)
f
(%)
Тe
(С)
Тes
(С)
Комфортность P
(гПа)
Po
(гПа)
Тmin
(С)
Tmax
(С)
R
(мм)
R24
(мм)
S
(см)
10 11.06 СЗ 1 н/о н/о +27.0 +24.7 87 +38 +38 очень
душно
1004.9 1000.2
11 11.06 С 4 н/о н/о +26.5 +24.7 90 +38 +38 очень
душно
1005.5 1000.8
12 11.06 СВ 4 8000 м слаб. дождь 10/5
[Frnb As op]
+25.5 +24.3 93 +35 +35 очень
душно
1006.2 1001.5 +28.0 2
13 11.06 СВ 4 н/о н/о +25.3 +23.9 92 +35 +35 очень
душно
1006.6 1001.9
14 11.06 СВ 3 н/о н/о +25.1 +24.2 95 +35 +35 очень
душно
1007.1 1002.4
15 11.06 СВ 3 н/о н/о +24.7 +23.3 92 +33 +33 очень
душно
1007.0 1002.3
16 11.06 СВ 3 н/о н/о +24.8 +23.1 90 +33 +33 очень
душно
1006.2 1001.5
17 11.06 СВ 2 н/о н/о +25.0 +22.9 88 +33 +33 очень
душно
1005.5 1000.8
18 11.06 СВ 3 20 км {дождь} 10/9
[Cu Sc As op]
+25.2 +23.1 88 +34 +34 очень
душно
1005.5 1000.8 4
19 11.06 СВ 2 н/о н/о +25.4 +22.5 84 +33 +33 очень
душно
1005.7 1001.0
20 11.06 СВ 3 н/о н/о +25.4 +21.9 81 +33 +33 очень
душно
1006.2 1001.5
21 11.06 СВ 3 20 км 9/3
[Sc Ac trans]
+25.4 +21.9 81 +33 +33 очень
душно
1006.2 1001.5
23 11.06 СВ 4 н/о н/о +26.3 +22.8 81 +35 +35 очень
душно
1007.3 1002.6
00 12.06 СВ 5 20 км 9/3
[Cu hum Ac trans Ci sp]
+26.7 +23.0 80 +36 +38 очень
душно
1007.6 1002.9 +24.6 4
01 12.06 СВ 5 н/о н/о +27.9 +22.8 74 +37 +37 очень
душно
1007.8 1003.1
02 12.06 СВ 5 н/о н/о +27.5 +22.7 75 +36 +36 очень
душно
1007.8 1003.1
03 12.06 СВ 5 15 км 9/3
[Cu hum Ac As Ci sp]
+28.2 +22.2 70 +37 +42 очень
душно
1007.4 1002.7
04 12.06 СВ 6 н/о н/о +28.0 +22.5 72 +37 +37 очень
душно
1007.2 1002.5
05 12.06 СВ 5 н/о н/о +27.7 +22.2 72 +36 +36 очень
душно
1006.7 1002.0
06 12.06 СВ 5 20 км 9/1
[Cu hum Ac As Ci sp]
+27.4 +22.6 75 +36 +41 очень
душно
1006.8 1002.1
07 12.06 СВ 5 н/о н/о +27.4 +22.4 74 +36 +36 очень
душно
1006.4 1001.7
08 12.06 В 4 н/о н/о +27.0 +22.8 78 +36 +36 очень
душно
1006.0 1001.3
09 12.06 В 4 20 км 10/5
[Cu Sc Ac As]
+26.9 +23.2 80 +36 +36 очень
душно
1006.4 1001.7
10 12.06 В 3 н/о н/о +26.7 +23.4 82 +36 +36 очень
душно
1006.6 1001.9
11 12.06 СВ 3 н/о н/о +26.6 +23.5 83 +36 +36 очень
душно
1007.0 1002.3
12 12.06 В 3 20 км 9/4
[Cu med, cong Ac As]
+26.6 +23.5 83 +36 +36 очень
душно
1007.4 1002.7 +28.5
13 12.06 В 4 н/о н/о +26.6 +23.5 83 +36 +36 очень
душно
1007.3 1002.6
14 12.06 В 3 н/о н/о +26.5 +23.6 84 +36 +36 очень
душно
1007.6 1002.9
15 12.06 В 3 н/о н/о +26.4 +23.9 86 +36 +36 очень
душно
1007.3 1002.6
16 12.06 В 2 н/о н/о +25.9 +24.1 90 +36 +36 очень
душно
1006.5 1001.8
17 12.06 В 3 н/о н/о +25.9 +24.1 90 +36 +36 очень
душно
1005.7 1001.0
18 12.06 В 3 20 км в посл. час дождь 10/9
[Cu Sc Ac As]
+25.9 +24.1 90 +36 +36 очень
душно
1005.4 1000.7 0.0
19 12.06 В 4 н/о н/о +26.3 +24.2 88 +37 +37 очень
душно
1004.9 1000.2
20 12.06 В 4 н/о н/о +24.6 +24.1 97 +34 +34 очень
душно
1004.8 1000.1
21 12.06 В 4 10 км в посл. час ливневой дождь 9/9
[Cu Sc]
+24.7 +24.2 97 +34 +34 очень
душно
1004.9 1000.2
22 12.06 В 3 н/о н/о +24.8 +24.3 97 +34 +34 очень
душно
1005.3 1000.6
23 12.06 В 4 н/о н/о +25.6 +24.4 93 +36 +36 очень
душно
1005.1 1000.4
00 13.06 В 4 25 км {ливн. осадки} 9/9
[Cu med, cong]
+26.4 +24.8 91 +38 +38 очень
душно
1005.5 1000.8 +24.6 11
01 13.06 В 5 н/о н/о +26.7 +24.4 87 +37 +37 очень
душно
1005.5 1000.8
02 13.06 В 5 н/о н/о +27.6 +24.7 84 +39 +39 очень
душно
1005.3 1000.6
03 13.06 В 6 25 км 9/9
[Cu Sc Ac trans]
+27.6 +24.9 85 +39 +40 очень
душно
1004.9 1000.2
04 13.06 ЮВ 4 н/о н/о +28.9 +25.1 80 +42 +42 опасность
перегрева
1004.1 999.4
05 13.06 Ю 3 н/о н/о +28.9 +25.3 81 +42 +42 опасность
перегрева
1003.5 998.8
06 13.06 Ю 4 25 км 9/6
[Cu med, cong Ac As]
+29.3 +25.7 81 +43 +46 опасность
перегрева
1002.9 998.3
07 13.06 Ю 3 н/о н/о +28.6 +25.4 83 +42 +42 опасность
перегрева
1002.5 997.8
08 13.06 Ю 3 н/о н/о +28.0 +25.4 86 +41 +41 опасность
перегрева
1002.2 997.5
09 13.06 Ю 4 20 км 9/6
[Cu Sc Ac As]
+28.8 +25.8 84 +43 +43 опасность
перегрева
1002.0 997.4
10 13.06 Ю 4 н/о н/о +27.9 +25.9 89 +42 +42 опасность
перегрева
1002.4 997.7
11 13.06 Ю 4 н/о н/о +27.6 +26.2 92 +42 +42 опасность
перегрева
1002.9 998.2
12 13.06 Ю 3 20 км 9/5
[Cu Sc Ac As]
+27.9 +26.7 93 +43 +43 опасность
перегрева
1003.2 998.5 +29.6
13 13.06 Ю 3 н/о н/о +27.9 +26.5 92 +43 +43 опасность
перегрева
1003.3 998.6
14 13.06 Ю 4 н/о н/о +27.7 +26.7 94 +43 +43 опасность
перегрева
1003.1 998.4
15 13.06 ЮЗ 3 н/о н/о +26.9 +26.2 96 +41 +41 опасность
перегрева
1002.6 997.9
16 13.06 Ю 5 н/о н/о +27.7 +27.0 96 +44 +44 опасность
перегрева
1001.8 997.1
17 13.06 ЮЗ 6 н/о н/о +27.7 +27.0 96 +44 +44 опасность
перегрева
1001.0 996.3
18 13.06 ЮЗ 5 20 км слаб. ливневой дождь {гроза} 10/10
[Cu med, cong]
+27.7 +27.0 96 +44 +44 опасность
перегрева
999.8 995.1 7
19 13.06 ЮЗ 7 н/о н/о +27.9 +26.8 94 +44 +44 опасность
перегрева
999.0 994.4
20 13.06 ЮЗ 6 н/о н/о +27.8 +26.9 95 +44 +44 опасность
перегрева
999.0 994.4
21 13.06 ЮЗ 7 8000 м гроза без осадков {ливн. осадки} 10/9
[Cb cap]
+27.9 +27.0 95 +44 +44 опасность
перегрева
999.3 994.7
22 13.06 ЮЗ 8 н/о н/о +26.2 +25.3 95 +38 +38 очень
душно
999.7 995.0
23 13.06 ЮЗ 6 н/о н/о +27.1 +25.9 93 +40 +40 очень
душно
1000.0 995.3
00 14.06 ЮЗ 6 10 км {гроза, ливн. осадки} 9/8
[Cb calv Ac As]
+28.7 +27.3 92 +46 +46 опасность
перегрева
1000.3 995.7 +24.9 26
02 14.06 ЮЗ 6 н/о н/о +26.4 +25.5 95 +39 +39 очень
душно
1001.3 996.6
03 14.06 ЮЗ 5 10 км ливневой дождь 10/9
[Cu med, cong Ac As]
+26.0 +25.5 97 +38 +38 очень
душно
1001.4 996.7
04 14.06 ЮЗ 5 н/о н/о +25.0 +24.5 97 +35 +35 очень
душно
1001.3 996.6
05 14.06 Ю 3 н/о н/о +25.5 +25.2 98 +37 +37 очень
душно
1001.1 996.4
06 14.06 З 2 15 км в посл. час гроза {ливн. осадки} 10/9
[Cb cap Ac As]
+26.3 +25.4 95 +38 +39 очень
душно
1000.1 995.4 15
07 14.06 СЗ 4 н/о н/о +26.3 +24.5 90 +37 +37 очень
душно
1000.0 995.3
08 14.06 З 4 н/о н/о +25.9 +23.6 87 +35 +35 очень
душно
1000.3 995.6
09 14.06 СЗ 3 20 км в посл. час ливневой дождь 9/9
[Cu Sc Ac trans]
+26.1 +23.8 87 +36 +36 очень
душно
1000.1 995.4
10 14.06 СЗ 5 н/о н/о +26.1 +24.2 89 +36 +36 очень
душно
1000.5 995.8
11 14.06 СЗ 4 н/о н/о +25.9 +23.6 87 +35 +35 очень
душно
1001.5 996.8
12 14.06 СЗ 4 20 км {ливн. осадки} 9/9
[Cu Sc Ac As]
+25.6 +23.5 88 +35 +35 очень
душно
1002.3 997.6 +29.1 15
13 14.06 С 4 н/о н/о +25.4 +23.1 87 +34 +34 очень
душно
1003.2 998.5
14 14.06 С 3 н/о н/о +25.6 +22.3 82 +33 +33 очень
душно
1003.5 998.8
15 14.06 С 5 н/о н/о +25.4 +22.5 84 +33 +33 очень
душно
1003.3 998.6
16 14.06 С 4 н/о н/о +25.4 +21.9 81 +33 +33 очень
душно
1002.9 998.2
17 14.06 СЗ 4 н/о н/о +25.3 +21.6 80 +32 +32 очень
душно
1003.0 998.3
18 14.06 СЗ 5 20 км в посл. час ливневой дождь 10/10
[Cu Sc]
+25.1 +22.2 84 +33 +33 очень
душно
1003.1 998.4 0.0
19 14.06 СЗ 6 н/о н/о +25.0 +21.3 80 +32 +32 очень
душно
1003.1 998.4
20 14.06 СЗ 6 н/о н/о +25.0 +20.1 74 +31 +31 очень
душно
1003.7 999.0
21 14.06 С 5 15 км 9/4
[Cu Sc Ac As]
+24.9 +20.0 74 +30 +30 душно 1004.1 999.4
22 14.06 С 5 н/о н/о +24.9 +20.0 74 +30 +30 душно 1005.0 1000.3
23 14.06 С 5 н/о н/о +25.1 +19.0 69 +30 +30 душно 1005.6 1000.9
00 15.06 С 5 20 км {ливн. осадки} 4/3
[Cu hum Ci sp]
+25.9 +19.1 66 +31 +34 очень
душно
1006.1 1001.4 +24.3 0.0
01 15.06 С 5 н/о н/о +26.6 +20.2 68 +33 +33 очень
душно
1006.2 1001.5
02 15.06 С 6 н/о н/о +27.0 +19.6 64 +33 +33 очень
душно
1006.4 1001.7
03 15.06 С 6 30 км 4/3
[Cu hum Cs]
+27.7 +20.3 64 +34 +41 очень
душно
1006.8 1002.1
04 15.06 С 6 н/о н/о +27.6 +19.1 60 +33 +33 очень
душно
1006.8 1002.1
05 15.06 С 5 н/о н/о +27.7 +19.2 60 +33 +33 очень
душно
1006.4 1001.7
06 15.06 С 5 30 км 4/3
[Cu hum Cs]
+27.3 +19.9 64 +33 +39 очень
душно
1006.0 1001.3
07 15.06 С 4 н/о н/о +27.7 +19.8 62 +34 +34 очень
душно
1006.2 1001.5
08 15.06 С 4 н/о н/о +27.4 +20.2 65 +34 +34 очень
душно
1006.3 1001.6
09 15.06 СВ 4 25 км 6/5
[Cu med, cong Ac trans]
+26.5 +19.6 66 +32 +33 очень
душно
1006.8 1002.1
10 15.06 СВ 3 н/о н/о +26.0 +19.4 67 +31 +31 очень
душно
1007.2 1002.5
11 15.06 СВ 3 н/о н/о +25.6 +19.3 68 +31 +31 очень
душно
1007.8 1003.1
12 15.06 СВ 2 25 км 3/1
[Cu hum Ci fib]
+25.4 +19.1 68 +30 +30 душно 1008.1 1003.4 +28.3
13 15.06 СВ 2 н/о н/о +25.2 +18.6 67 +30 +30 душно 1008.9 1004.2
14 15.06 В 2 н/о н/о +24.5 +19.1 72 +29 +29 душно 1009.1 1004.3
15 15.06 СВ 1 н/о н/о +24.3 +19.2 73 +29 +29 душно 1009.2 1004.4
16 15.06 штиль 0 н/о н/о +24.0 +19.3 75 +29 +29 душно 1009.1 1004.3
17 15.06 В 1 н/о н/о +23.9 +19.8 78 +29 +29 душно 1008.6 1003.8
18 15.06 В 1 25 км 3/3
[Cu hum]
+23.7 +19.4 77 +29 +29 душно 1008.5 1003.7
19 15.06 СВ 1 н/о н/о +23.0 +19.6 81 +30 +30 очень
душно
1008.3 1003.5
20 15.06 ЮВ 2 н/о н/о +23.0 +19.6 81 +30 +30 очень
душно
1008.5 1003.7
21 15.06 В 1 25 км 3/3
[Cu hum Ci fib]
+23.0 +19.4 80 +29 +29 очень
душно
1008.9 1004.1
22 15.06 ЮВ 2 н/о н/о +24.2 +20.1 78 +30 +30 очень
душно
1009.4 1004.6
23 15.06 В 2 н/о н/о +25.9 +21.1 75 +33 +33 очень
душно
1009.9 1005.2
00 16.06 В 3 30 км 3/3
[Cu hum]
+26.5 +19.6 66 +32 +38 очень
душно
1010.1 1005.4 +22.5
01 16.06 В 3 н/о н/о +26.9 +19.3 63 +32 +32 очень
душно
1010.6 1005.9
02 16.06 В 4 н/о н/о +27.3 +19.7 63 +33 +33 очень
душно
1010.6 1005.9
03 16.06 В 5 30 км 6/1
[Cu hum Ac trans Ci fib]
+27.4 +20.2 65 +34 +42 очень
душно
1010.8 1006.1
04 16.06 СВ 5 н/о н/о +27.5 +20.3 65 +34 +34 очень
душно
1010.1 1005.4
05 16.06 СВ 5 н/о н/о +27.7 +21.0 67 +35 +35 очень
душно
1009.9 1005.2
06 16.06 В 5 30 км 8/1
[Cb calv Ac trans Ci fib]
+27.7 +21.3 68 +35 +40 очень
душно
1009.9 1005.2
07 16.06 В 5 н/о н/о +28.0 +21.8 69 +36 +36 очень
душно
1009.8 1005.1
08 16.06 В 4 н/о н/о +27.5 +21.8 71 +35 +35 очень
душно
1009.7 1005.0
09 16.06 В 4 20 км 9/6
[Cu hum Ac As]
+27.0 +22.0 74 +35 +35 очень
душно
1010.0 1005.3
10 16.06 В 5 н/о н/о +26.8 +22.2 76 +35 +35 очень
душно
1010.5 1005.8
11 16.06 ЮВ 3 н/о н/о +26.3 +23.0 82 +35 +35 очень
душно
1010.8 1006.1
12 16.06 ЮВ 3 10 км слаб. дождь 10/3
[Frnb As op]
+24.5 +23.8 96 +33 +33 очень
душно
1011.4 1006.6 +28.5 0.0
13 16.06 В 3 н/о н/о +24.7 +23.7 94 +34 +34 очень
душно
1011.9 1007.1
14 16.06 В 3 н/о н/о +25.1 +23.7 92 +34 +34 очень
душно
1011.9 1007.1
15 16.06 В 4 н/о н/о +25.0 +23.1 89 +33 +33 очень
душно
1011.6 1006.8
16 16.06 В 3 н/о н/о +24.9 +22.6 87 +33 +33 очень
душно
1011.0 1006.2
17 16.06 В 4 н/о н/о +25.1 +23.9 93 +34 +34 очень
душно
1010.5 1005.8
18 16.06 В 4 15 км {дождь} 10/10
[Sc]
+25.4 +24.2 93 +35 +35 очень
душно
1010.3 1005.6 0.0
19 16.06 В 3 н/о н/о +25.5 +24.1 92 +35 +35 очень
душно
1010.7 1006.0
20 16.06 В 3 н/о н/о +25.8 +24.6 93 +36 +36 очень
душно
1010.8 1006.1
21 16.06 В 3 10 км в посл. час ливневой дождь 10/6
[Cb calv As op]
+26.0 +24.8 93 +37 +37 очень
душно
1011.0 1006.3
22 16.06 В 3 н/о н/о +25.9 +25.4 97 +38 +38 очень
душно
1011.1 1006.4
23 16.06 В 2 н/о н/о +26.4 +25.7 96 +39 +39 очень
душно
1011.5 1006.8
00 17.06 ЮВ 3 10 км слаб. дождь 10/9
[Cu med, cong Ac As]
+26.8 +25.9 95 +40 +40 очень
душно
1011.8 1007.1 +24.4 1
01 17.06 ЮВ 3 н/о н/о +27.2 +26.3 95 +41 +41 опасность
перегрева
1011.6 1006.9
02 17.06 Ю 5 н/о н/о +28.6 +26.4 88 +44 +44 опасность
перегрева
1011.6 1006.9
03 17.06 Ю 8 10 км в посл. час ливневой дождь 10/9
[Cu med, cong Ac As]
+27.2 +25.6 91 +40 +40 очень
душно
1011.5 1006.8
05 17.06 ЮЗ 3 н/о н/о +26.5 +25.6 95 +39 +39 очень
душно
1011.7 1007.0
06 17.06 Ю 3 15 км в посл. час ливневой дождь 10/3
[Frnb Ac As]
+26.4 +25.0 92 +38 +41 очень
душно
1011.2 1006.5 6
07 17.06 Ю 2 н/о н/о +26.7 +25.5 93 +39 +39 очень
душно
1010.9 1006.2
08 17.06 ЮВ 2 н/о н/о +27.3 +25.7 91 +40 +40 очень
душно
1010.7 1006.0
09 17.06 ЮВ 2 15 км 9/8
[Cu med, cong Ac As]
+27.1 +25.5 91 +40 +40 очень
душно
1010.8 1006.1
10 17.06 ЮВ 3 н/о н/о +26.8 +25.6 93 +39 +39 очень
душно
1011.1 1006.4
11 17.06 ЮВ 3 н/о н/о +26.5 +25.6 95 +39 +39 очень
душно
1011.7 1007.0
12 17.06 ЮВ 2 8000 м слаб. ливневой дождь 9/8
[Cu med, cong Ac As]
+26.5 +25.8 96 +39 +39 очень
душно
1012.2 1007.5 +29.4 6
13 17.06 В 3 н/о н/о +25.8 +25.5 98 +38 +38 очень
душно
1012.8 1008.1
14 17.06 Ю 2 н/о н/о +26.3 +25.8 97 +39 +39 очень
душно
1013.0 1008.3
15 17.06 Ю 3 н/о н/о +26.7 +26.4 98 +41 +41 опасность
перегрева
1012.4 1007.7
16 17.06 Ю 2 н/о н/о +26.5 +26.2 98 +40 +40 очень
душно
1012.3 1007.6
18 17.06 Ю 3 15 км зарница {гроза, ливн. осадки} 9/1
[Cb cap Ac As]
+26.0 +25.3 96 +38 +38 очень
душно
1011.2 1006.5 21
19 17.06 Ю 3 н/о н/о +26.1 +25.4 96 +38 +38 очень
душно
1010.9 1006.2
20 17.06 ЮЗ 4 н/о н/о +26.4 +25.4 94 +38 +38 очень
душно
1011.1 1006.4
21 17.06 ЮЗ 4 8000 м слаб. ливневой дождь 9/5
[Cu med, cong Ac As]
+26.1 +25.4 96 +38 +38 очень
душно
1011.2 1006.5
22 17.06 Ю 3 н/о н/о +26.0 +25.3 96 +38 +38 очень
душно
1011.6 1006.9
23 17.06 Ю 3 н/о н/о +27.2 +26.5 96 +42 +42 опасность
перегрева
1011.4 1006.7
00 18.06 Ю 5 10 км слаб. ливневой дождь 10/10
[Cu med, cong]
+27.8 +27.3 97 +44 +44 опасность
перегрева
1011.4 1006.7 +25.1 22
01 18.06 ЮЗ 5 н/о н/о +28.1 +27.6 97 +45 +45 опасность
перегрева
1011.4 1006.7
02 18.06 ЮЗ 7 н/о н/о +28.9 +27.5 92 +47 +47 опасность
перегрева
1011.2 1006.5
03 18.06 ЮЗ 6 10 км {ливн. осадки} 9/9
[St Ac As]
+29.7 +27.7 89 +48 +49 опасность
перегрева
1011.5 1006.8
04 18.06 ЮЗ 5 н/о н/о +28.4 +27.3 94 +45 +45 опасность
перегрева
1011.2 1006.5
05 18.06 ЮЗ 5 н/о н/о +27.9 +27.4 97 +45 +45 опасность
перегрева
1010.6 1005.9
06 18.06 ЮЗ 5 10 км слаб. ливневой дождь 10/10
[Cu med, cong]
+28.0 +27.3 96 +45 +45 опасность
перегрева
1010.2 1005.5 0.5
07 18.06 ЮЗ 5 н/о н/о +28.3 +27.2 94 +45 +45 опасность
перегрева
1010.1 1005.4
08 18.06 ЮЗ 4 н/о н/о +28.0 +27.1 95 +44 +44 опасность
перегрева
1010.4 1005.7
09 18.06 ЮЗ 4 15 км в посл. час дождь {ливн. осадки} 9/8
[St Ac As]
+28.0 +27.1 95 +44 +44 опасность
перегрева
1010.3 1005.6

 

Местоположение метеостанции Миякодзима (Япония): широта 24.80 долгота 125.28 высота над уровнем моря 41 м.

В архиве по умолчанию представлена погода в Миякодзиме за последнюю неделю. Архивные данные за месяц целиком и за предыдущие месяцы, начиная с января 2011 года, Вы можете получить, выбрав интересующий диапазон дат из раскрывающегося списка и нажав кнопку "Ввод!".


*Определитесь, кто Вы:
робот инопланетянин человек

Внимание! Время в таблицах - всемирное. Для получения местного времени необходимо прибавить поправку, которая равна 9 ч.

Смотрите также архив погоды в соседних городах и на ближайших метеорологических станциях:

Погода в Игисаки (Япония) (125 км)
Погода на Ириомоте (Япония) (159 км)
Погода в Кумедзиме (Япония) (229 км)
Погода на Йонагуни (Япония) (232 км)
Погода в Нахе (Япония) (287 км)
Погода в Наго (Япония) (335 км)
Погода на Пенгджия (Тайвань, Китай) (337 км)
Погода в Тайбэе (Тайвань, Китай) (381 км)
Погода на Окиноэрабу (Япония) (449 км)
Погода в Тайчжуне (Тайвань, Китай) (471 км)

Пояснения к столбцам:

Ветер - указаны скорость ветра в м/с - средняя за 10 мин, порывы в срок и между сроками (в фигурных скобках) и направление, откуда дует ветер: С - северный, СВ - северо-восточный, В - восточный, ЮВ - юго-восточный, Ю - южный, ЮЗ - юго-западный, З - западный, СЗ - северо-западный.
Видимость - горизонтальная дальность видимости в метрах или километрах. При видимости от 1 до 10 км при отсутствии осадков обычно наблюдается дымка, при ухудшении видимости до 1 км и менее - туман. В сухую погоду видимость может ухудшаться дымом, пылью или мглою.
Явления - указаны атмосферные явления, наблюдавшиеся в срок или в последний час перед сроком; фигурными скобками обозначены явления, наблюдавшиеся между сроками (за 1-3 часа до срока); квадратными скобками обозначены град или гололедные отложения с указанием их диаметра в мм.
Облачность - указаны через наклонную черту общая и нижняя облачность в баллах и высота нижней границы облаков в метрах; квадратными скобками обозначены формы облаков: Ci - перистые, Cs - перисто-слоистые, Cc - перисто-кучевые, Ac - высококучевые, As - высокослоистые, Sc - слоисто-кучевые, Ns - слоисто-дождевые, Cu - кучевые, Cb - кучево-дождевые. Подробнее классификацию облаков см. в Атласе облаков (PDF).
T - Температура воздуха - температура, измеренная на высоте 2 м над землей.
Td - Температура точки росы - температура, при понижении до которой содержащийся в воздухе водяной пар достигнет насыщения.
f - Относительная влажность воздуха - влажноcть воздуха, измеренная на высоте 2 м над землей.
Te - Эффективная температура - температура, которую ощущает одетый по сезону человек в тени. Характеристика душности погоды. При расчете учитывается влияние влажности воздуха и скорости ветра на теплоощущения человека.
Tes - Эффективная температура на солнце - температура, которую ощущает человек, с поправкой на солнечный нагрев. Характеристика знойности погоды. Зависит от высоты солнца над горизонтом, облачности и скорости ветра. Ночью, в пасмурную погоду, а также при ветре 12 м/с и более поправка равна нулю.
P - Атмосферное давление - приведенное к уровню моря атмосферное давление.
Po - Атмосферное давление - измеренное на уровне метеостанции атмосферное давление.
Tmin - Минимальная температура - минимум температуры воздуха на высоте 2 м над землей.
Tmax - Максимальная температура - максимум температуры воздуха на высоте 2 м над землей.
R - Количество осадков - Количество выпавших осадков за период времени, мм. При наведении курсора мыши на число - период времени, за который выпало указанное количество осадков.
R24 - Количество осадков - Количество выпавших осадков за 24 часа, мм.
S - Снежный покров - Высота снежного покрова, см. При наведении курсора мыши на число - состояние снежного покрова и степень покрытия местности в баллах.